User: anonymous   Login
Location: Copper Breaks State Park
(34.1132°N, 99.7492°W)
Time: 16:32:31
(UTC-05:00)
Language:

SL-16 R/B - Orbit

View from above orbital plane
View from above orbital plane
View from above satellite
View from above satellite

Ground track
Ground track

The orbit data is extracted from the following two-line orbital elements,

1 27006U 01056F   17233.53370134 -.00000050  00000-0 -78049-5 0  9999
2 27006  99.3238  12.7261 0015246 137.3338 261.8755 13.70969370785454
Epoch (UTC): 21 August 2017 12:48:31
Eccentricity: 0.0015246
inclination: 99.3238°
perigee height: 985 km
apogee height: 1007 km
right ascension of ascending node: 12.7261°
argument of perigee: 137.3338°
revolutions per day: 13.70969370
mean anomaly at epoch: 261.8755°
orbit number at epoch: 78545

The dashed part of the orbit path shows where the satellite is in the earth's shadow,  

DLR